• In Uzbekistan
  • List of Countries
  • For 7 days
  • Water Temperature
  • Satellite Maps
  • Weather Map
  • Weather Widgets
  • user-avatar
    Login

    Hourly Weather Rozdol'ne

    Today, 23 May, Wednesday

    Time Temperature Precipitation Wind Pressure Humidity
    00:00 +17°C° 0 mm 2 mps 752 mmHg 90%
    01:00 +16°C° 0 mm 2 mps 752 mmHg 92%
    02:00 +16°C° 0 mm 2 mps 752 mmHg 93%
    03:00 +16°C° 0 mm 2 mps 752 mmHg 93%
    04:00 +17°C° 0 mm 2 mps 752 mmHg 93%
    05:00 +17°C° 0 mm 2 mps 752 mmHg 94%
    06:00 +19°C° 0 mm 3 mps 752 mmHg 87%
    07:00 +20°C° 0 mm 3 mps 752 mmHg 80%
    08:00 +22°C° 0 mm 4 mps 752 mmHg 73%
    09:00 +23°C° 0 mm 4 mps 752 mmHg 67%
    10:00 +25°C° 0 mm 4 mps 752 mmHg 62%
    11:00 +26°C° 0 mm 4 mps 752 mmHg 56%
    12:00 +27°C° 0 mm 4 mps 751 mmHg 56%
    13:00 +27°C° 0 mm 4 mps 751 mmHg 56%
    14:00 +27°C° 0 mm 4 mps 751 mmHg 56%
    15:00 +27°C° 0.2 mm 4 mps 750 mmHg 60%
    16:00 +26°C° 0.2 mm 3 mps 750 mmHg 64%
    17:00 +26°C° 0.2 mm 3 mps 750 mmHg 68%
    18:00 +24°C° 0.1 mm 3 mps 749 mmHg 74%
    19:00 +21°C° 0.1 mm 3 mps 749 mmHg 80%
    20:00 +20°C° 0.1 mm 2 mps 749 mmHg 86%
    21:00 +19°C° 0 mm 3 mps 749 mmHg 88%
    22:00 +18°C° 0 mm 3 mps 749 mmHg 90%
    23:00 +18°C° 0 mm 3 mps 749 mmHg 92%

    Tomorrow, 24 May, Thursday

    Time Temperature Precipitation Wind Pressure Humidity
    00:00 +17°C° 0 mm 3 mps 749 mmHg 93%
    01:00 +17°C° 0 mm 3 mps 749 mmHg 93%
    02:00 +17°C° 0 mm 3 mps 748 mmHg 94%
    03:00 +17°C° 0 mm 3 mps 748 mmHg 94%
    04:00 +17°C° 0 mm 3 mps 748 mmHg 93%
    05:00 +17°C° 0 mm 3 mps 748 mmHg 93%
    06:00 +18°C° 0 mm 3 mps 748 mmHg 88%
    07:00 +20°C° 0 mm 3 mps 748 mmHg 83%
    08:00 +21°C° 0 mm 3 mps 748 mmHg 78%
    09:00 +22°C° 0 mm 4 mps 748 mmHg 74%
    10:00 +23°C° 0 mm 4 mps 748 mmHg 70%
    11:00 +26°C° 0 mm 4 mps 747 mmHg 66%
    12:00 +26°C° 0.2 mm 4 mps 747 mmHg 64%
    13:00 +26°C° 0.2 mm 4 mps 747 mmHg 63%
    14:00 +27°C° 0.2 mm 4 mps 746 mmHg 61%
    15:00 +26°C° 0.4 mm 4 mps 746 mmHg 64%
    16:00 +26°C° 0.4 mm 4 mps 746 mmHg 67%
    17:00 +25°C° 0.4 mm 4 mps 745 mmHg 69%
    18:00 +22°C° 0.1 mm 4 mps 746 mmHg 76%
    19:00 +21°C° 0.1 mm 3 mps 746 mmHg 82%
    20:00 +19°C° 0.1 mm 3 mps 746 mmHg 88%
    21:00 +19°C° 0 mm 3 mps 746 mmHg 90%
    22:00 +18°C° 0 mm 3 mps 746 mmHg 91%
    23:00 +18°C° 0 mm 3 mps 746 mmHg 93%

    Day after tomorrow, 25 May, Friday

    Time Temperature Precipitation Wind Pressure Humidity
    00:00 +17°C° 0 mm 3 mps 746 mmHg 94%
    01:00 +17°C° 0 mm 3 mps 746 mmHg 94%
    02:00 +17°C° 0 mm 3 mps 746 mmHg 95%
    03:00 +17°C° 0 mm 4 mps 746 mmHg 94%
    04:00 +17°C° 0 mm 4 mps 746 mmHg 93%
    05:00 +16°C° 0 mm 5 mps 746 mmHg 92%
    06:00 +17°C° 0 mm 5 mps 747 mmHg 89%
    07:00 +19°C° 0 mm 6 mps 747 mmHg 85%
    08:00 +19°C° 0 mm 6 mps 747 mmHg 81%
    09:00 +20°C° 0 mm 6 mps 747 mmHg 80%
    10:00 +20°C° 0 mm 7 mps 747 mmHg 79%
    11:00 +20°C° 0 mm 7 mps 748 mmHg 78%
    12:00 +21°C° 0 mm 7 mps 748 mmHg 76%
    13:00 +22°C° 0 mm 7 mps 748 mmHg 73%
    14:00 +22°C° 0 mm 7 mps 748 mmHg 71%
    15:00 +22°C° 0.1 mm 7 mps 749 mmHg 71%
    16:00 +22°C° 0.1 mm 7 mps 749 mmHg 72%
    17:00 +22°C° 0.1 mm 7 mps 749 mmHg 72%
    18:00 +21°C° 0 mm 7 mps 750 mmHg 73%
    19:00 +18°C° 0 mm 7 mps 750 mmHg 73%
    20:00 +17°C° 0 mm 7 mps 751 mmHg 74%
    21:00 +16°C° 0 mm 7 mps 752 mmHg 72%
    22:00 +15°C° 0 mm 7 mps 752 mmHg 70%
    23:00 +12°C° 0 mm 7 mps 753 mmHg 68%

    26 May, Saturday

    Time Temperature Precipitation Wind Pressure Humidity
    00:00 +12°C° 0 mm 7 mps 753 mmHg 66%
    01:00 +11°C° 0 mm 7 mps 754 mmHg 64%
    02:00 +10°C° 0 mm 7 mps 754 mmHg 63%
    03:00 +9°C° 0 mm 7 mps 755 mmHg 63%
    04:00 +9°C° 0 mm 7 mps 755 mmHg 63%
    05:00 +8°C° 0 mm 7 mps 756 mmHg 64%
    06:00 +10°C° 0 mm 7 mps 756 mmHg 60%
    07:00 +11°C° 0 mm 8 mps 757 mmHg 56%
    08:00 +12°C° 0 mm 8 mps 757 mmHg 53%
    09:00 +13°C° 0 mm 8 mps 757 mmHg 51%
    10:00 +15°C° 0 mm 8 mps 757 mmHg 50%
    11:00 +16°C° 0 mm 8 mps 758 mmHg 48%
    12:00 +16°C° 0 mm 8 mps 758 mmHg 48%
    13:00 +16°C° 0 mm 8 mps 757 mmHg 49%
    14:00 +17°C° 0 mm 8 mps 757 mmHg 49%
    15:00 +17°C° 0 mm 7 mps 757 mmHg 51%
    16:00 +16°C° 0 mm 7 mps 757 mmHg 54%
    17:00 +16°C° 0 mm 6 mps 757 mmHg 56%
    18:00 +14°C° 0 mm 6 mps 758 mmHg 61%
    19:00 +13°C° 0 mm 5 mps 758 mmHg 65%
    20:00 +12°C° 0 mm 4 mps 758 mmHg 69%
    21:00 +11°C° 0 mm 4 mps 759 mmHg 71%
    22:00 +10°C° 0 mm 4 mps 759 mmHg 74%
    23:00 +8°C° 0 mm 4 mps 759 mmHg 76%

    27 May, Sunday

    Time Temperature Precipitation Wind Pressure Humidity
    00:00 +8°C° 0 mm 4 mps 759 mmHg 78%
    01:00 +8°C° 0 mm 3 mps 759 mmHg 80%
    02:00 +8°C° 0 mm 3 mps 759 mmHg 82%
    03:00 +8°C° 0 mm 3 mps 759 mmHg 81%
    04:00 +7°C° 0 mm 4 mps 759 mmHg 80%
    05:00 +7°C° 0 mm 4 mps 759 mmHg 79%
    06:00 +10°C° 0 mm 4 mps 759 mmHg 72%
    07:00 +12°C° 0 mm 4 mps 759 mmHg 64%
    08:00 +14°C° 0 mm 5 mps 759 mmHg 57%
    09:00 +15°C° 0 mm 5 mps 759 mmHg 54%
    10:00 +16°C° 0 mm 5 mps 759 mmHg 51%
    11:00 +19°C° 0 mm 5 mps 758 mmHg 48%
    12:00 +19°C° 0 mm 5 mps 758 mmHg 48%
    13:00 +20°C° 0 mm 5 mps 758 mmHg 48%
    14:00 +20°C° 0 mm 5 mps 757 mmHg 47%
    15:00 +20°C° 0 mm 5 mps 757 mmHg 50%
    16:00 +20°C° 0 mm 4 mps 757 mmHg 53%
    17:00 +20°C° 0 mm 4 mps 756 mmHg 55%
    18:00 +18°C° 0 mm 3 mps 756 mmHg 61%
    19:00 +16°C° 0 mm 3 mps 756 mmHg 66%
    20:00 +14°C° 0 mm 2 mps 756 mmHg 72%
    21:00 +14°C° 0 mm 2 mps 756 mmHg 74%
    22:00 +13°C° 0 mm 2 mps 756 mmHg 76%
    23:00 +12°C° 0 mm 1 mps 756 mmHg 78%

    28 May, Monday

    Time Temperature Precipitation Wind Pressure Humidity
    00:00 +12°C° 0 mm 1 mps 756 mmHg 79%
    01:00 +12°C° 0 mm 1 mps 756 mmHg 80%
    02:00 +12°C° 0 mm 1 mps 756 mmHg 81%
    03:00 +12°C° 0 mm 2 mps 756 mmHg 81%
    04:00 +12°C° 0 mm 2 mps 756 mmHg 81%
    05:00 +13°C° 0 mm 2 mps 756 mmHg 81%
    06:00 +15°C° 0 mm 2 mps 756 mmHg 75%
    07:00 +17°C° 0 mm 2 mps 755 mmHg 69%
    08:00 +20°C° 0 mm 2 mps 755 mmHg 63%
    09:00 +21°C° 0 mm 2 mps 755 mmHg 59%
    10:00 +22°C° 0 mm 3 mps 755 mmHg 55%
    11:00 +24°C° 0 mm 3 mps 754 mmHg 51%
    12:00 +25°C° 0 mm 3 mps 754 mmHg 50%
    13:00 +26°C° 0 mm 3 mps 753 mmHg 49%
    14:00 +26°C° 0 mm 3 mps 753 mmHg 48%
    15:00 +26°C° 0 mm 3 mps 753 mmHg 52%
    16:00 +25°C° 0 mm 3 mps 752 mmHg 56%
    17:00 +25°C° 0 mm 4 mps 752 mmHg 60%
    18:00 +22°C° 0 mm 3 mps 752 mmHg 67%
    19:00 +20°C° 0 mm 3 mps 752 mmHg 73%
    20:00 +18°C° 0 mm 3 mps 752 mmHg 80%
    21:00 +18°C° 0 mm 3 mps 752 mmHg 82%
    22:00 +17°C° 0 mm 3 mps 751 mmHg 85%
    23:00 +16°C° 0 mm 3 mps 751 mmHg 87%
    Show more